Home   Weather   Mexico City   Past weeks
Flag for Mexico

Past Weather in Mexico City, Ciudad de México, Mexico — Yesterday and Last 2 Weeks

Now
57 °F

Passing clouds.


Feels Like: 56 °F
Forecast: 73 / 56 °F
Wind: 6 mph from East

Location: Mexico City / Licenci

Current Time: Jul 23, 2019 at 6:54:46 am

Latest Report: Jul 23, 2019 at 5:44 am


Visibility: 10 mi

Pressure: 30.36 "Hg (23.25 "Hg at 2241m altitude)

Humidity: 77%

Dew Point: 50 °F

Location of Mexico CityLocation

Past Weather in Mexico City — Graph

°F

Mexico City Temperature Yesterday

Maximum temperature yesterday: 73 °F (at 2:45 pm)
Minimum temperature yesterday: 57 °F (at 4:44 am)
Average temperature yesterday: 65 °F

High & Low Weather Summary for the Past Weeks

 TemperatureHumidityPressure
High79 °F (Jul 9, 4:38 pm)100% (Jul 13, 6:52 am)30.41 "Hg (Jul 13, 6:52 am)
Low55 °F (Jul 8, 6:50 am)26% (Jul 16, 3:46 pm)29.69 "Hg (Jul 13, 3:46 pm)
Average64 °F65%30.21 "Hg
* Reported Jul 8 5:44 am — Jul 23 5:44 am, Mexico City. Weather by CustomWeather, © 2019

Note: Actual official high and low records may vary slightly from our data, if they occured in-between our weather recording intervals... More about our weather records

Advertising

Mexico City Weather History for the Previous 24 Hours

Scroll right to see more
 ConditionsComfort  
Time TempWeatherWind HumidityBarometerVisibility
5:44 am
Tue, Jul 23
57 °FPassing clouds.6 mph77%30.36 "Hg10 mi
4:44 am59 °FPassing clouds.5 mph72%30.35 "Hg10 mi
3:45 am61 °FPassing clouds.10 mph68%29.83 "Hg10 mi
2:41 am63 °FPassing clouds.5 mph64%30.38 "Hg10 mi
1:40 am63 °FPassing clouds.5 mph64%30.39 "Hg10 mi
12:45 am63 °FPassing clouds.7 mph64%29.87 "Hg12 mi
11:40 pm
Mon, Jul 22
64 °FPassing clouds.9 mph56%30.39 "Hg12 mi
10:40 pm64 °FPartly cloudy.9 mph56%30.37 "Hg12 mi
9:40 pm66 °FPartly cloudy.6 mph52%29.88 "Hg9 mi
8:42 pm66 °FPartly cloudy.3 mph49%30.32 "Hg10 mi
8:40 pm66 °FPartly cloudy.3 mph49%30.32 "Hg10 mi
7:44 pm70 °FBroken clouds.13 mph46%30.29 "Hg9 mi
6:47 pm72 °FBroken clouds.17 mph44%29.82 "Hg9 mi
5:42 pm73 °FMild.18 mph33%30.26 "Hg9 mi
4:55 pm73 °FCloudy.18 mph38%30.27 "Hg8 mi
3:51 pm73 °FMostly cloudy.7 mph36%29.75 "Hg6 mi
2:45 pm73 °FPartly sunny.6 mph38%30.31 "Hg6 mi
1:48 pm72 °FPartly sunny.12 mph41%30.34 "Hg6 mi
12:48 pm70 °FScattered clouds.8 mph43%29.86 "Hg6 mi
12:34 pm72 °FScattered clouds.6 mph44%30.36 "Hg7 mi
11:44 am68 °FScattered clouds.9 mph49%30.37 "Hg7 mi
10:44 am66 °FScattered clouds.7 mph52%30.38 "Hg7 mi
10:17 am66 °FScattered clouds.7 mph56%30.38 "Hg6 mi
9:45 am63 °FScattered clouds.7 mph64%29.91 "Hg6 mi
8:45 am61 °FScattered clouds.No wind68%30.37 "Hg6 mi
7:48 am57 °FScattered clouds.3 mph72%30.37 "Hg7 mi
6:50 am57 °FPassing clouds.3 mph72%29.92 "Hg7 mi
Weather by CustomWeather, © 2019

See weather overview